sat.trackr.live / text

‹ back to catalog

COSMOS 2482 (RODNIK-S 4)

NORAD 39057 · 2013-001A

PAYLOAD ACTIVE UNKNOWN

§ Identity

Operator
Country
CIS
Launch date
2013-01-15
Launch site
PLMSC
Launch vehicle
Mass (kg)
RCS (m²)
1.75

External: N2YO · Heavens-Above · Gunter

§ Orbital elements

Epoch: 2026-09-13T04:13:34.068000Z

Period
115.85 min
Inclination
82.5034°
Eccentricity
0.0026597
Mean motion
12.42997877 rev/d
Perigee alt
1,473.0 km
Apogee alt
1,514.9 km
Semi-major
7,872.1 km
B*
3.5043e-4
RAAN
165.6380°
Arg perigee
190.8652°
Mean anomaly
169.1857°
Rev number
61,964

§ Raw data

COSMOS 2482 (RODNIK-S 4)1 39057U 13001A   26256.17608875  .00000059  00000+0  35043-3 0  99932 39057  82.5034 165.6380 0026597 190.8652 169.1857 12.42997877619646

JSON: /api/v1/satellites/39057 · /tle

For live sub-satellite position, see the globe view (requires WebGL).

§ Visibility from observer

Set your observer location to see the next 7 days of passes ≥ 10°. The values pass through the URL so the page stays shareable.

No JS? Fill the form by hand. The geolocation button needs JavaScript.